"Pseudo-MPEC" for P10WjoJ

Created 2020 Feb 28 3:07:25 UT using Find_Orb

Click here for an explanation of pseudo-MPECs

 
 Astrometry: 
     P10WjoJ  C2020 01 218KmAstrometry:-YVlKs-mSS%redacted;aib0x.\w_7j[dUql[dF51
     P10WjoJ  C2020 01 21,hxc4I6uqC(v+r8oJFQG,CkclickA-EQhereX82wxTuahxQIuFFZF51
     P10WjoJ  C2020 01 21r^OC+for[Dk$62e[cCMO@L)ogrH?jqn6=N/V#,;8P,fr'6%)eEUoF51
     P10WjoJ |C2020 01 22oCA=140G,80b;#.mc$3[`iKes7d(`Y%'PA8e+9KC$39tjGgSKUh1807
     P10WjoJ |C2020 01 22x:PKexplanation+;TkNYr%UdD:#o^[\QVLRwY#R!i+;?VF40kcD807
     P10WjoJ |C2020 01 22cBSMfm+5+fq\Bw4@0lL15W'Th'CRs,v\N)dnwo)\5Ts2Qa,aSXLh807

Station data:
(807) Cerro Tololo Observatory, La Serena  (S30.169136 W70.805900)  Chile.
(F51) Pan-STARRS 1, Haleakala  (N20.707235 W156.255910)  US/Hawaii.
   Observers N. Primak, A. Schultz, S. Watters, J. Thiel, T. Goggia. Measurer
   PS1 Science Consortium. 1.8-m Ritchey-Chrétien + CCD.

Orbital elements:  P10WjoJ
   Perihelion 2020 Feb 2.753580 +/- 0.163 TT = 18:05:09 (JD 2458882.253580)
Epoch 2020 Jan 22.0 TT = JDT 2458870.5   Earth MOID: 0.0105   Ma: 0.0809
M 356.61978262 +/- 0.20             (J2000 ecliptic)          AutoNEOCP
n   0.28759045 +/- 0.021            Peri.  349.41514 +/- 1.5
a   2.27310625 +/- 0.111            Node   144.89212 +/- 1.2
e   0.5626077 +/- 0.0214            Incl.    3.17125 +/- 0.19
P   3.43                   H 26.8   G  0.15   U 10.1  
q 0.99423914 +/- 0.000487    Q 3.55197336 +/- 0.228
From 6 observations 2020 Jan. 21-22 (21.3 hr); mean residual 0".07
Residuals in arcseconds: 
200121 F51  .07+  .03+    200121 F51  .03+  .07-    200122 807  .09+  .02-    
200121 F51  .10-  .03+    200122 807  .12-  .08+    200122 807  .02+  .06-    

Ephemerides (geocentric):
Date (UTC) HH   RA              Dec         delta   r     elong  mag " sig PA
---- -- -- --  -------------   -----------  ------ ------ -----  --- ---- ---
2020 02 28 03  14 59 19.816   -07 07 03.45  .12219 1.0458 113.9 24.5 2442  60
2020 02 28 04  14 59 20.656   -07 06 28.55  .12235 1.0460 113.9 24.5 2441  60
2020 02 28 05  14 59 21.486   -07 05 53.71  .12251 1.0462 114.0 24.5 2440  60
2020 02 28 06  14 59 22.306   -07 05 18.93  .12267 1.0463 114.0 24.5 2439  60
2020 02 28 07  14 59 23.115   -07 04 44.22  .12283 1.0465 114.0 24.5 2437  60
2020 02 28 08  14 59 23.914   -07 04 09.57  .12299 1.0467 114.1 24.5 2436  60
2020 02 28 09  14 59 24.703   -07 03 34.99  .12315 1.0468 114.1 24.5 2435  60
2020 02 28 10  14 59 25.482   -07 03 00.47  .12331 1.0470 114.2 24.5 2434  60
2020 02 28 11  14 59 26.250   -07 02 26.01  .12347 1.0472 114.2 24.5 2433  60
2020 02 28 12  14 59 27.009   -07 01 51.62  .12363 1.0473 114.2 24.5 2432  60
2020 02 28 13  14 59 27.757   -07 01 17.29  .12379 1.0475 114.3 24.5 2431  60
2020 02 28 14  14 59 28.496   -07 00 43.02  .12395 1.0476 114.3 24.5 2430  60
2020 02 28 15  14 59 29.224   -07 00 08.82  .12411 1.0478 114.4 24.5 2429  60
2020 02 28 16  14 59 29.942   -06 59 34.67  .12427 1.0480 114.4 24.5 2428  60
2020 02 28 17  14 59 30.650   -06 59 00.59  .12443 1.0481 114.4 24.5 2427  60
2020 02 28 18  14 59 31.348   -06 58 26.57  .12459 1.0483 114.5 24.5 2426  60
2020 02 28 19  14 59 32.036   -06 57 52.61  .12475 1.0485 114.5 24.5 2425  60
2020 02 28 20  14 59 32.715   -06 57 18.71  .12491 1.0486 114.6 24.5 2424  60
2020 02 28 21  14 59 33.383   -06 56 44.88  .12507 1.0488 114.6 24.5 2423  60
2020 02 28 22  14 59 34.041   -06 56 11.10  .12523 1.0490 114.6 24.5 2422  60
2020 02 28 23  14 59 34.690   -06 55 37.38  .12539 1.0492 114.7 24.5 2421  60
2020 02 29 00  14 59 35.329   -06 55 03.73  .12555 1.0493 114.7 24.5 2420  60
2020 02 29 01  14 59 35.958   -06 54 30.13  .12571 1.0495 114.8 24.5 2419  60
2020 02 29 02  14 59 36.577   -06 53 56.59  .12586 1.0497 114.8 24.5 2418  60
2020 02 29 03  14 59 37.186   -06 53 23.11  .12602 1.0498 114.8 24.5 2417  60
2020 02 29 04  14 59 37.786   -06 52 49.70  .12618 1.0500 114.9 24.5 2416  60
2020 02 29 05  14 59 38.376   -06 52 16.34  .12634 1.0502 114.9 24.5 2415  60
2020 02 29 06  14 59 38.956   -06 51 43.03  .12650 1.0503 115.0 24.5 2414  60
2020 02 29 07  14 59 39.527   -06 51 09.79  .12666 1.0505 115.0 24.5 2413  60
2020 02 29 08  14 59 40.087   -06 50 36.61  .12682 1.0507 115.0 24.5 2412  60
2020 02 29 09  14 59 40.639   -06 50 03.48  .12698 1.0508 115.1 24.5 2411  60
2020 02 29 10  14 59 41.180   -06 49 30.41  .12714 1.0510 115.1 24.5 2410  60
2020 02 29 11  14 59 41.712   -06 48 57.40  .12730 1.0512 115.2 24.6 2409  60
2020 02 29 12  14 59 42.235   -06 48 24.44  .12746 1.0514 115.2 24.6 2408  60
2020 02 29 13  14 59 42.748   -06 47 51.54  .12762 1.0515 115.2 24.6 2407  60
2020 02 29 14  14 59 43.251   -06 47 18.70  .12778 1.0517 115.3 24.6 2406  60
2020 02 29 15  14 59 43.745   -06 46 45.92  .12794 1.0519 115.3 24.6 2405  60
2020 02 29 16  14 59 44.229   -06 46 13.19  .12810 1.0520 115.4 24.6 2404  60
2020 02 29 17  14 59 44.704   -06 45 40.51  .12826 1.0522 115.4 24.6 2403  60
2020 02 29 18  14 59 45.170   -06 45 07.90  .12842 1.0524 115.5 24.6 2402  60
2020 02 29 19  14 59 45.626   -06 44 35.34  .12858 1.0526 115.5 24.6 2401  60
2020 02 29 20  14 59 46.073   -06 44 02.83  .12874 1.0527 115.5 24.6 2401  60
2020 02 29 21  14 59 46.510   -06 43 30.38  .12890 1.0529 115.6 24.6 2400  60
2020 02 29 22  14 59 46.938   -06 42 57.98  .12906 1.0531 115.6 24.6 2399  60
2020 02 29 23  14 59 47.357   -06 42 25.64  .12922 1.0532 115.7 24.6 2398  60
2020 03 01 00  14 59 47.766   -06 41 53.35  .12938 1.0534 115.7 24.6 2397  60
2020 03 01 01  14 59 48.166   -06 41 21.12  .12953 1.0536 115.7 24.6 2396  60
2020 03 01 02  14 59 48.557   -06 40 48.94  .12969 1.0538 115.8 24.6 2395  60